EW5226 Weather Reports


Display with metric or nautical units.
time (UTC)temp
F
wind
direction
speed
MPH
gust
MPH
rain 1hr
in
rain 24hr
in
rain mn
in
humidity
%
barometer
mb
20260509001549 79 258 0.0 2.0 0.00 0.00 0.00 81 1013.5
20260509000048 80 237 0.0 1.0 0.00 0.00 0.00 78 1013.1
20260508234547 82 236 0.0 1.0 0.00 0.00 0.00 75 1013.0
20260508233048 84 238 0.0 1.0 0.00 0.00 0.00 71 1012.8
20260508231550 86 273 0.0 1.0 0.00 0.00 0.00 67 1012.6
20260508230046 88 203 0.0 3.0 0.00 0.00 0.00 64 1012.5
20260508224553 91 13 0.0 3.0 0.00 0.00 0.00 60 1012.4
20260508223045 92 247 0.0 4.0 0.00 0.00 0.00 54 1012.4
20260508221545 93 240 0.0 3.0 0.00 0.00 0.00 54 1012.1
20260508220047 93 301 0.0 3.0 0.00 0.00 0.00 52 1012.0
20260508214546 93 259 0.0 3.0 0.00 0.00 0.00 53 1012.0
20260508213042 93 287 0.0 3.0 0.00 0.00 0.00 52 1012.0
20260508211542 93 251 0.0 3.0 0.00 0.00 0.00 54 1012.1
20260508210042 93 339 0.0 2.0 0.00 0.00 0.00 54 1012.0
20260508204540 93 298 1.0 3.0 0.00 0.00 0.00 54 1012.0
20260508203041 94 39 0.0 2.0 0.00 0.00 0.00 50 1012.1
20260508201537 93 238 0.0 2.0 0.00 0.00 0.00 52 1012.4
20260508200036 93 302 0.0 6.0 0.00 0.00 0.00 51 1012.6
20260508194533 93 210 0.0 4.0 0.00 0.00 0.00 53 1012.8
20260508193031 93 243 0.0 3.0 0.00 0.00 0.00 50 1012.9
20260508191530 93 304 0.0 5.0 0.00 0.00 0.00 53 1013.0
20260508190024 92 237 1.0 6.0 0.00 0.00 0.00 51 1013.4
20260508184524 92 89 0.0 6.0 0.00 0.00 0.00 56 1013.6
20260508183023 91 268 0.0 5.0 0.00 0.00 0.00 57 1013.9
20260508181530 92 295 1.0 3.0 0.00 0.00 0.00 52 1014.2
20260508180020 91 322 2.0 4.0 0.00 0.00 0.00 54 1014.5
20260508174520 90 2 3.0 7.0 0.00 0.00 0.00 58 1014.4
20260508173019 90 14 2.0 5.0 0.00 0.00 0.00 61 1014.6
20260508171523 91 356 1.0 3.0 0.00 0.00 0.00 56 1014.7
20260508170018 91 261 0.0 3.0 0.00 0.00 0.00 60 1015.0
20260508164514 90 75 2.0 4.0 0.00 0.00 0.00 59 1015.2
20260508163016 90 31 0.0 4.0 0.00 0.00 0.00 61 1015.3
20260508161514 89 335 0.0 4.0 0.00 0.00 0.00 61 1015.6
20260508160007 88 77 1.0 4.0 0.00 0.00 0.00 62 1015.8
20260508154508 88 231 0.0 2.0 0.00 0.00 0.00 63 1016.0
20260508153016 88 323 1.0 4.0 0.00 0.00 0.00 61 1016.0
20260508151503 87 268 0.0 2.0 0.00 0.00 0.00 70 1016.1
20260508150100 85 296 0.0 2.0 0.00 0.00 0.00 75 1016.2
20260508144558 84 321 1.0 5.0 0.00 0.00 0.00 75 1016.2
20260508143117 85 38 2.0 6.0 0.00 0.00 0.00 73 1016.1
20260508141600 84 297 0.0 6.0 0.00 0.00 0.00 77 1016.3
20260508140110 83 294 0.0 2.0 0.00 0.00 0.00 78 1016.1
20260508134554 84 323 0.0 2.0 0.00 0.00 0.00 78 1016.1
20260508133052 82 234 0.0 2.0 0.00 0.00 0.00 81 1016.2
20260508131549 82 260 0.0 1.0 0.00 0.00 0.00 84 1016.1
20260508130045 80 248 0.0 3.0 0.00 0.00 0.00 87 1016.1
20260508124543 79 34 0.0 3.0 0.00 0.00 0.00 89 1016.1
20260508123044 76 256 0.0 1.0 0.00 0.00 0.00 93 1016.1
20260508121535 75 215 0.0 3.0 0.00 0.00 0.00 94 1015.8
20260508120031 74 303 0.0 2.0 0.00 0.00 0.00 96 1015.6
20260508114526 73 283 0.0 0.0 0.00 0.00 0.00 96 1015.4
20260508113023 72 282 0.0 0.0 0.00 0.00 0.00 96 1015.1
20260508111521 71 282 0.0 0.0 0.00 0.00 0.00 95 1014.9
20260508110029 71 283 0.0 0.0 0.00 0.00 0.00 95 1014.7
20260508104519 70 283 0.0 0.0 0.00 0.00 0.00 95 1014.5
20260508103036 71 282 0.0 0.0 0.00 0.00 0.00 95 1014.4
20260508101518 71 282 0.0 0.0 0.00 0.00 0.00 95 1014.2
20260508100017 70 282 0.0 0.0 0.00 0.00 0.00 96 1014.2
20260508094517 70 283 0.0 0.0 0.00 0.00 0.00 95 1014.1
20260508093016 70 282 0.0 0.0 0.00 0.00 0.00 95 1013.9
20260508091516 70 282 0.0 0.0 0.00 0.00 0.00 95 1013.8
20260508090013 70 282 0.0 0.0 0.00 0.00 0.00 95 1013.7
20260508084513 70 282 0.0 0.0 0.00 0.00 0.00 95 1013.5
20260508083012 70 281 0.0 0.0 0.00 0.00 0.00 95 1013.7
20260508081511 70 281 0.0 0.0 0.00 0.00 0.00 95 1013.7
20260508080010 70 281 0.0 0.0 0.00 0.00 0.00 94 1013.7
20260508074511 70 281 0.0 0.0 0.00 0.00 0.00 94 1013.7
20260508073010 70 281 0.0 0.0 0.00 0.00 0.00 94 1013.9
20260508071508 71 281 0.0 0.0 0.00 0.00 0.00 94 1013.9
20260508070004 71 281 0.0 1.0 0.00 0.00 0.00 94 1014.2
20260508064502 71 281 0.0 0.0 0.00 0.00 0.00 94 1014.2
20260508063001 71 281 0.0 0.0 0.00 0.00 0.00 94 1014.2
20260508061501 71 281 0.0 0.0 0.00 0.00 0.00 94 1014.3
20260508060121 71 283 0.0 0.0 0.00 0.00 0.00 94 1014.5
20260508054640 72 281 0.0 1.0 0.00 0.00 0.00 94 1014.8
20260508053057 71 306 0.0 0.0 0.00 0.00 0.00 94 1014.8
20260508051557 71 306 0.0 0.0 0.00 0.00 0.00 93 1014.7
20260508050056 72 306 0.0 0.0 0.00 0.00 0.00 93 1014.8
20260508044553 72 306 0.0 0.0 0.00 0.00 0.00 93 1014.9
20260508043058 72 307 0.0 0.0 0.00 0.00 0.00 93 1015.0
20260508041552 72 307 0.0 1.0 0.00 0.00 0.00 93 1014.9
20260508040047 72 154 0.0 0.0 0.00 0.00 0.00 92 1015.0
20260508034551 72 146 0.0 1.0 0.00 0.00 0.00 92 1015.2
20260508033047 72 146 0.0 0.0 0.00 0.00 0.00 91 1015.2
20260508031551 72 213 0.0 1.0 0.00 0.00 0.00 91 1015.0
20260508030046 72 214 0.0 1.0 0.00 0.00 0.00 90 1015.0
20260508024559 72 213 0.0 1.0 0.00 0.00 0.00 90 1014.9
20260508023045 72 214 0.0 1.0 0.00 0.00 0.00 89 1015.0
20260508021545 73 214 0.0 0.0 0.00 0.00 0.00 88 1014.8
20260508020051 73 214 0.0 1.0 0.00 0.00 0.00 87 1014.8
20260508014545 74 254 0.0 1.0 0.00 0.00 0.00 87 1014.8
20260508013043 74 255 0.0 1.0 0.00 0.00 0.00 86 1014.8
20260508011543 74 236 0.0 1.0 0.00 0.00 0.00 85 1014.6
20260508010049 75 238 0.0 1.0 0.00 0.00 0.00 83 1014.6
20260508004542 76 236 0.0 0.0 0.00 0.00 0.00 80 1014.5
20260508003042 77 236 0.0 1.0 0.00 0.00 0.00 78 1014.4